Regional Weather Roundup
Issued by NWS Newport/Morehead, NC

Current Version | Previous Version | Graphics & Text | Print | Product List | Glossary Off
Versions: 1 2 3 4 5 6 7 8 9 10 11 12 13 14 15 16 17 18 19 20 21 22 23 24 25 26 27 28 29 30 31 32 33 34 35 36 37 38 39 40 41 42 43 44 45 46 47 48 49 50

000
ASUS42 KMHX 170813
RWRMHX
WEATHER ROUNDUP FOR EASTERN NORTH CAROLINA
NATIONAL WEATHER SERVICE NEWPORT/MOREHEAD CITY NC
300 AM EST FRI NOV 17 2017

NOTE: "FAIR" INDICATES FEW OR NO CLOUDS BELOW 12,000 FEET
WITH NO SIGNIFICANT WEATHER AND/OR OBSTRUCTIONS TO VISIBILITY

NCZ015>017-031-032-045>047-102-103-170900-
NORTH COAST

CITY           SKY/WX    TMP DP  RH WIND       PRES   REMARKS
EDENTON        CLEAR     44  36  72 N5        30.14R
ELIZABETH CITY CLEAR     45  37  73 N13       30.12R
KITTY HAWK     SUNNY     50  38  63 N12       30.08R
MANTEO         CLEAR     49  40  69 N12       30.10R

$$

NCZ045>047-081-094-103-104-170900-
CENTRAL COAST

CITY           SKY/WX    TMP DP  RH WIND       PRES   REMARKS
FRISCO         CLEAR     54  46  74 N12G24    30.08R

$$

NCZ095-097-098-100-101-170900-
SOUTHERN COAST

CITY           SKY/WX    TMP DP  RH WIND       PRES   REMARKS
BEAUFORT       CLEAR     47  41  80 N7        30.10R
CEDAR ISLAND   NOT AVBL
JACKSONVILLE   NOT AVBL
PINEY ISLAND   NOT AVBL
WILMINGTON     CLEAR     46  38  73 N6        30.12R


$$

NCZ011>013-027>030-043-044-078>080-089-090>093-098-170900-
COASTAL PLAIN

CITY           SKY/WX    TMP DP  RH WIND       PRES   REMARKS
AHOSKIE        CLEAR     39  33  78 CALM      30.16R
CLINTON        CLEAR     47  35  63 N6        30.15R
ELIZABETHTOWN  NOT AVBL
GOLDSBORO      CLEAR     46  32  56 N6        30.13R
GREENVILLE     CLEAR     37  32  81 N6        30.16
HAVELOCK       NOT AVBL
KENANSVILLE    CLEAR     45  32  61 N5        30.14R
KINSTON        CLEAR     41  34  75 N6        30.15R
NEW BERN       CLEAR     44  38  79 N8        30.13R
RICHLANDS      CLEAR     45  35  68 N5        30.13R
ROCKY MOUNT    CLEAR     42  33  70 N6        30.17R
WASHINGTON     CLEAR     42  36  79 N7        30.14R
WHITEVILLE     CLEAR     47  36  66 N3        30.13R

$$

AMZ130-135-150-152-154-156-158-170-250-252-270-ANZ085-086-088-633-658-670-170900-
MARINE OBSERVATIONS

STATION/POSITION TIME  TEMP    WIND        PRES    WAVE   SWELL
                       AIR SEA DIR/SP/G            HT/PER HT/PER
                 (UTC) (F)     (DEG/KT/KT) (MB)    (FT/S) (FT/S)
CHESAPEAKE LIGHT NOT AVBL
64 E VA BEACH    0750   52 61  350/ 23/ 29 1018.0    8/ 6   3/12
DUCK             0742   49 58  330/ 19/ 22 1018.5
2 E DUCK         0800      59                N/A     6/ 6   2/12
OREGON INLET     0742   52 58  350/ 12/ 19 1018.8
13E OREGON INLT  0748      62                N/A     6/ 5   5/13
HATTERAS CG      0742   55 60   10/ 21/ 25 1018.1
DIAMOND BUOY     0800   59 65  360/ 23/ 27 1018.1
CAPE LOOKOUT     0800   52     360/ 17/ 20 1019.2
BEAUFORT LAB     0742   51 59  360/  8/ 12 1019.2
30 SE NEW RVR IN 0708   63 71   30/ 16/ 21 1018.2
30 SE NEW RVR IN 0800      71                N/A     4/12   2/12
27 SE WRIGHTSVLE 0708   63 68   20/ 21/ 31 1018.3
5 SE WRIGHTSVLE  0708   58 64   10/ 16/ 21 1017.4
225 S CAPE HAT   0750   69 77   10/ 14/ 19 1015.6    7/11   5/11
41 SE CHARLESTON 0750   66 75  350/ 14/ 17 1018.5

$$



USA.gov is the U.S. government's official web portal to all federal, state and local government web resources and services.